DW8979 Weather Reports


Display with metric or nautical units.
time (UTC)temp
F
wind
direction
speed
MPH
gust
MPH
rain 1hr
in
rain 24hr
in
rain mn
in
humidity
%
barometer
mb
20190117135316 50 166 3.0 6.0 0.00 2.06 0.04 89 1014.8
20190117134816 50 213 2.0 6.0 0.00 2.06 0.04 89 1014.8
20190117134312 50 217 3.0 8.0 0.00 2.06 0.04 89 1014.9
20190117133802 50 216 3.0 8.0 0.00 2.06 0.04 89 1014.9
20190117133258 50 249 3.0 8.0 0.00 2.06 0.04 89 1015.0
20190117132741 50 204 4.0 9.0 0.00 2.06 0.04 89 1014.9
20190117132245 50 221 4.0 10.0 0.00 2.06 0.04 89 1014.7
20190117131739 50 215 4.0 10.0 0.00 2.06 0.04 92 1014.8
20190117131238 51 209 5.0 10.0 0.00 2.06 0.04 89 1014.9
20190117130737 51 231 4.0 10.0 0.00 2.06 0.04 89 1014.9
20190117130235 50 204 3.0 10.0 0.00 2.06 0.04 89 1014.8
20190117125740 51 198 3.0 11.0 0.00 2.06 0.04 89 1014.8
20190117125238 50 194 3.0 11.0 0.00 2.06 0.04 89 1014.9
20190117124734 51 223 3.0 11.0 0.00 2.06 0.04 89 1014.9
20190117124234 50 215 3.0 11.0 0.00 2.06 0.04 89 1014.6
20190117123744 51 257 2.0 9.0 0.00 2.06 0.04 89 1014.6
20190117123234 50 204 3.0 9.0 0.00 2.06 0.04 89 1014.9
20190117122731 50 223 4.0 17.0 0.00 2.07 0.04 89 1015.0
20190117122230 50 217 4.0 17.0 0.00 2.07 0.04 89 1014.9
20190117121735 50 212 4.0 9.0 0.00 2.07 0.04 89 1014.9
20190117121230 50 231 4.0 15.0 0.00 2.08 0.04 89 1014.9
20190117120726 50 207 4.0 15.0 0.00 2.09 0.04 89 1014.9
20190117120224 50 229 3.0 7.0 0.00 2.09 0.04 89 1014.8
20190117115741 50 203 4.0 7.0 0.00 2.10 0.04 89 1014.8
20190117115223 50 223 4.0 7.0 0.00 2.10 0.04 89 1014.8
20190117114718 50 212 4.0 10.0 0.00 2.10 0.04 89 1014.8
20190117114218 51 215 4.0 10.0 0.00 2.10 0.04 89 1014.6
20190117113719 51 227 3.0 6.0 0.00 2.10 0.04 89 1014.7
20190117113210 51 224 3.0 7.0 0.00 2.10 0.04 89 1014.7
20190117112711 51 224 4.0 9.0 0.00 2.11 0.04 89 1014.7
20190117112206 51 209 4.0 9.0 0.00 2.12 0.04 89 1014.7
20190117111702 51 223 4.0 9.0 0.00 2.12 0.04 89 1014.5
20190117111204 51 205 4.0 13.0 0.00 2.13 0.04 89 1014.4
20190117110659 51 166 3.0 13.0 0.00 2.13 0.04 89 1014.3
20190117110158 51 216 4.0 8.0 0.00 2.14 0.04 89 1014.3
20190117105657 51 218 4.0 11.0 0.00 2.15 0.04 89 1014.4
20190117105159 51 142 3.0 11.0 0.00 2.15 0.04 89 1014.1
20190117104658 51 226 3.0 9.0 0.00 2.16 0.04 89 1014.0
20190117104144 51 231 3.0 10.0 0.00 2.17 0.04 89 1013.9
20190117103642 50 227 4.0 14.0 0.00 2.17 0.04 89 1014.1
20190117103151 50 275 5.0 14.0 0.00 2.18 0.04 89 1014.0
20190117102640 50 225 4.0 11.0 0.00 2.18 0.04 89 1014.0
20190117102139 50 242 4.0 10.0 0.00 2.19 0.04 89 1013.7
20190117101638 50 229 4.0 10.0 0.01 2.19 0.04 89 1013.6
20190117101138 50 209 4.0 9.0 0.01 2.19 0.04 89 1013.5
20190117100643 51 223 3.0 9.0 0.01 2.19 0.04 89 1013.5
20190117100134 51 218 3.0 8.0 0.01 2.19 0.04 89 1013.5
20190117095639 51 209 4.0 8.0 0.01 2.19 0.04 89 1013.4
20190117095135 50 214 3.0 10.0 0.02 2.19 0.04 89 1013.3
20190117094634 50 195 3.0 10.0 0.03 2.19 0.04 92 1013.3
20190117094134 50 188 3.0 8.0 0.03 2.20 0.04 88 1013.3
20190117093632 50 225 3.0 9.0 0.03 2.21 0.04 89 1013.3
20190117093155 50 228 3.0 9.0 0.04 2.22 0.04 89 1013.3
20190117092630 50 107 3.0 7.0 0.04 2.23 0.04 89 1012.8
20190117092129 50 218 4.0 10.0 0.04 2.24 0.04 89 1012.7
20190117091628 50 210 4.0 10.0 0.03 2.24 0.03 89 1012.8
20190117091134 50 115 6.0 13.0 0.03 2.26 0.03 89 1012.8
20190117090621 50 208 6.0 15.0 0.03 2.27 0.03 88 1012.8
20190117090130 50 246 5.0 15.0 0.03 2.27 0.03 89 1012.8
20190117085616 51 225 4.0 11.0 0.03 2.27 0.03 89 1012.8
20190117085113 51 221 3.0 12.0 0.02 2.27 0.02 89 1012.7
20190117084101 51 200 3.0 10.0 0.01 2.26 0.01 89 1012.7
20190117083607 51 215 4.0 8.0 0.01 2.26 0.01 89 1012.7
20190117083111 51 211 4.0 9.0 0.00 2.26 0.00 89 1012.5
20190117082551 51 196 3.0 9.0 0.00 2.26 0.00 89 1012.5
20190117082055 51 243 3.0 8.0 0.00 2.28 0.00 89 1012.4
20190117081616 51 224 4.0 13.0 0.00 2.28 0.00 89 1012.4
20190117081040 51 123 4.0 13.0 0.01 2.29 0.00 89 1012.4
20190117080540 51 221 4.0 11.0 0.02 2.30 0.00 88 1012.4
20190117080040 51 172 4.0 9.0 0.03 2.31 0.00 88 1012.2
20190117075539 51 137 4.0 9.0 0.04 2.32 2.31 88 1012.2
20190117075040 51 215 3.0 9.0 0.04 2.32 2.31 89 1012.2
20190117074546 51 130 4.0 10.0 0.04 2.33 2.31 89 1012.1
20190117074036 50 167 5.0 10.0 0.06 2.33 2.31 89 1012.2
20190117073542 50 215 4.0 13.0 0.06 2.34 2.31 88 1012.0
20190117073036 51 216 4.0 13.0 0.07 2.35 2.31 88 1012.2
20190117072536 50 182 4.0 10.0 0.08 2.35 2.31 89 1012.1
20190117072034 50 223 4.0 11.0 0.08 2.36 2.31 88 1012.2
20190117071527 50 223 3.0 8.0 0.10 2.36 2.31 88 1012.2
20190117071025 50 275 3.0 8.0 0.10 2.35 2.31 88 1012.0
20190117070520 50 206 3.0 11.0 0.10 2.35 2.30 88 1012.3
20190117070013 50 203 4.0 11.0 0.09 2.34 2.28 88 1012.3
20190117065514 50 210 4.0 11.0 0.10 2.33 2.27 88 1012.1
20190117065015 50 168 4.0 11.0 0.12 2.33 2.27 88 1012.0
20190117064511 50 180 4.0 11.0 0.14 2.33 2.27 88 1011.8
20190117064010 50 219 4.0 7.0 0.15 2.31 2.25 88 1011.9
20190117063456 50 233 4.0 10.0 0.17 2.31 2.25 88 1011.7
20190117062949 50 234 6.0 16.0 0.18 2.31 2.24 88 1011.8
20190117062445 51 221 6.0 16.0 0.19 2.30 2.23 88 1011.9
20190117061940 51 203 6.0 11.0 0.21 2.31 2.23 88 1011.8
20190117061439 51 226 7.0 17.0 0.24 2.29 2.21 88 1011.8
20190117060943 52 220 9.0 20.0 0.25 2.28 2.20 88 1011.5
20190117060440 53 243 9.0 21.0 0.25 2.27 2.19 88 1011.6
20190117055939 54 288 9.0 21.0 0.29 2.27 2.19 88 1011.0
20190117055446 54 209 9.0 20.0 0.31 2.24 2.17 88 1010.5
20190117054934 54 286 10.0 26.0 0.31 2.22 2.14 88 1010.0
20190117054435 54 176 11.0 26.0 0.31 2.20 2.12 88 1010.1
20190117053933 54 192 9.0 25.0 0.30 2.20 2.10 88 1009.8
20190117053429 54 190 9.0 26.0 0.30 2.18 2.08 88 1009.9
20190117052928 54 177 10.0 26.0 0.33 2.17 2.06 88 1009.7
20190117052429 54 190 9.0 21.0 0.33 2.16 2.04 88 1009.5
20190117051924 54 144 9.0 25.0 0.31 2.13 2.01 88 1009.5
20190117051429 54 217 11.0 37.0 0.30 2.10 1.98 88 1009.7
20190117050922 54 192 10.0 37.0 0.29 2.09 1.95 88 1009.6
20190117050422 54 132 8.0 21.0 0.31 2.10 1.94 88 1009.2
20190117045924 54 188 8.0 20.0 0.29 2.07 1.91 88 1009.4
20190117045420 54 195 8.0 26.0 0.26 2.02 1.86 88 1009.8
20190117044920 54 206 9.0 26.0 0.26 2.00 1.83 88 1009.8
20190117044418 54 131 9.0 22.0 0.27 2.00 1.81 88 1010.0
20190117043918 53 181 8.0 25.0 0.29 1.99 1.80 88 1009.9
20190117043417 53 150 8.0 25.0 0.31 1.98 1.79 88 1010.2
20190117042916 53 194 9.0 21.0 0.30 1.93 1.74 88 1010.5
20190117042413 53 110 8.0 22.0 0.30 1.92 1.71 88 1010.7
20190117041913 53 167 8.0 22.0 0.33 1.91 1.70 88 1010.5
20190117041406 53 269 8.0 17.0 0.33 1.88 1.67 88 1010.6
20190117040903 53 206 9.0 26.0 0.34 1.87 1.66 88 1010.9
20190117040402 53 165 10.0 26.0 0.32 1.86 1.64 88 1010.7
20190117035900 53 124 10.0 23.0 0.29 1.84 1.60 88 1011.0
20190117035400 53 107 9.0 23.0 0.28 1.82 1.59 88 1011.3
20190117034859 53 167 9.0 21.0 0.26 1.80 1.57 88 1010.9
20190117034405 53 206 7.0 18.0 0.24 1.79 1.54 88 1011.2
20190117033903 53 171 5.0 12.0 0.20 1.75 1.51 88 1010.8
20190117033406 53 235 5.0 11.0 0.16 1.71 1.47 88 1011.4
20190117032856 53 198 4.0 10.0 0.13 1.69 1.44 88 1011.5
20190117031856 53 165 4.0 10.0 0.07 1.63 1.37 88 1011.2
20190117031346 53 185 5.0 23.0 0.04 1.60 1.35 88 1011.4
20190117030848 53 174 8.0 24.0 0.01 1.57 1.32 88 1010.9
20190117030341 53 188 8.0 24.0 0.01 1.57 1.31 88 1010.6
20190117025840 53 123 6.0 22.0 0.01 1.57 1.31 88 1010.3
20190117025342 53 200 6.0 22.0 0.00 1.56 1.30 88 1010.7
20190117024837 53 144 5.0 14.0 0.00 1.56 1.30 88 1010.5
20190117024336 53 210 5.0 22.0 0.00 1.56 1.30 88 1010.9
20190117023835 53 185 6.0 22.0 0.00 1.56 1.30 88 1011.0
20190117023340 53 199 5.0 15.0 0.00 1.57 1.30 88 1010.7
20190117022833 53 210 5.0 14.0 0.00 1.57 1.30 88 1011.0
20190117022331 53 165 5.0 15.0 0.00 1.59 1.30 88 1011.0
20190117021827 53 184 5.0 15.0 0.00 1.61 1.30 88 1011.2
20190117021332 53 185 6.0 16.0 0.00 1.61 1.30 88 1011.0
20190117020825 53 140 7.0 19.0 0.00 1.63 1.30 88 1011.0
20190117020323 53 200 7.0 19.0 0.00 1.63 1.30 88 1011.2
20190117015822 53 150 8.0 22.0 0.00 1.64 1.30 88 1011.3
20190117015321 53 140 9.0 25.0 0.00 1.65 1.30 88 1011.5
20190117014820 53 124 7.0 25.0 0.00 1.66 1.30 88 1011.4
20190117014320 53 110 6.0 14.0 0.01 1.67 1.30 88 1011.4
20190117013814 53 52 6.0 19.0 0.01 1.69 1.30 88 1011.4
20190117013319 53 128 8.0 21.0 0.01 1.71 1.30 88 1011.6
20190117012812 53 184 8.0 27.0 0.01 1.73 1.30 88 1011.0
20190117012328 53 121 7.0 27.0 0.01 1.76 1.30 88 1011.5
20190117011810 53 44 7.0 22.0 0.01 1.79 1.30 88 1011.5
20190117011309 53 188 6.0 21.0 0.01 1.82 1.30 88 1011.6
20190117010808 53 194 5.0 21.0 0.01 1.85 1.30 88 1011.7
20190117010308 53 240 5.0 12.0 0.01 1.87 1.30 88 1012.0
20190117005806 53 128 5.0 14.0 0.01 1.89 1.30 88 1012.0
20190117005306 53 177 6.0 24.0 0.01 1.91 1.30 88 1011.8
20190117004805 53 165 6.0 24.0 0.01 1.94 1.30 88 1011.9
20190117004303 53 180 6.0 25.0 0.00 1.94 1.29 88 1012.0
20190117003803 53 201 7.0 25.0 0.00 1.96 1.29 88 1012.0
20190117003302 53 150 6.0 23.0 0.00 1.98 1.29 88 1012.2
20190117002807 53 196 6.0 17.0 0.00 2.00 1.29 88 1012.1
20190117002317 53 137 6.0 17.0 0.00 2.02 1.29 88 1012.1
20190117001820 53 171 5.0 14.0 0.02 2.03 1.29 88 1012.3
20190117001259 53 185 7.0 16.0 0.06 2.05 1.29 88 1012.2
20190117000757 53 128 7.0 24.0 0.12 2.06 1.29 88 1012.3
20190117000256 52 109 6.0 24.0 0.18 2.08 1.29 88 1012.2
20190116235750 52 261 6.0 20.0 0.24 2.09 1.29 88 1012.5
20190116235746 52 207 5.0 12.0 0.25 2.10 1.29 88 1012.6
20190116235248 52 207 5.0 12.0 0.25 2.10 1.29 88 1012.6
20190116234744 52 95 6.0 19.0 0.28 2.11 1.29 88 1012.5
20190116234253 52 141 6.0 19.0 0.33 2.12 1.29 88 1012.5
20190116233742 52 153 6.0 27.0 0.37 2.12 1.29 88 1012.6
20190116233232 52 207 6.0 27.0 0.41 2.13 1.29 88 1012.6
20190116232737 52 127 5.0 15.0 0.44 2.14 1.29 88 1012.7
20190116232238 52 212 4.0 9.0 0.48 2.16 1.29 88 1012.5
20190116231735 52 170 6.0 16.0 0.50 2.12 1.23 88 1012.3
20190116231731 52 190 5.0 16.0 0.49 2.14 1.27 88 1012.4
20190116231235 52 170 6.0 16.0 0.50 2.12 1.23 88 1012.3
20190116230722 52 153 7.0 21.0 0.44 2.03 1.16 88 1012.4
20190116230223 52 169 7.0 25.0 0.42 2.00 1.10 88 1012.2
20190116225723 52 158 6.0 25.0 0.40 1.98 1.06 88 1012.2
20190116225220 51 150 5.0 19.0 0.45 2.00 1.04 88 1012.6
20190116224720 51 126 6.0 20.0 0.44 1.99 1.02 88 1012.5
20190116224222 51 128 7.0 22.0 0.39 1.95 0.96 88 1012.5
20190116223730 51 174 6.0 22.0 0.38 1.94 0.92 88 1012.7
20190116223218 51 172 5.0 20.0 0.39 1.91 0.89 88 1012.8
20190116222710 51 188 5.0 20.0 0.37 1.91 0.86 88 1012.6
20190116222211 51 182 5.0 14.0 0.38 1.90 0.82 88 1012.6
20190116221709 51 159 5.0 20.0 0.38 1.90 0.78 88 1012.6
20190116221208 51 214 6.0 23.0 0.34 1.88 0.73 88 1012.4
20190116220708 51 146 6.0 23.0 0.31 1.87 0.70 88 1012.1
20190116220200 51 207 5.0 19.0 0.29 1.85 0.67 88 1012.1
20190116215701 51 186 4.0 15.0 0.27 1.84 0.65 88 1012.3
20190116215158 51 185 5.0 15.0 0.22 1.80 0.60 88 1012.2
20190116214655 51 198 6.0 21.0 0.20 1.79 0.57 88 1012.1
20190116214148 51 247 6.0 21.0 0.18 1.78 0.56 88 1012.0
20190116213651 51 128 7.0 23.0 0.18 1.79 0.54 88 1011.8
20190116213142 50 136 7.0 23.0 0.13 1.75 0.49 88 1012.2
20190116212645 50 129 6.0 19.0 0.11 1.74 0.48 88 1011.9
20190116212142 50 200 6.0 21.0 0.07 1.71 0.43 88 1012.5
20190116211641 50 153 6.0 21.0 0.04 1.69 0.40 88 1012.4
20190116211146 50 178 7.0 19.0 0.03 1.68 0.39 88 1012.2
20190116210651 50 117 8.0 19.0 0.03 1.69 0.39 88 1011.9
20190116210141 50 126 8.0 18.0 0.02 1.69 0.38 88 1012.0
20190116205641 50 120 7.0 18.0 0.02 1.69 0.37 88 1012.3
20190116205145 50 135 6.0 18.0 0.02 1.69 0.37 88 1012.2
20190116204634 50 137 6.0 22.0 0.03 1.70 0.37 88 1012.6
20190116204135 50 178 6.0 22.0 0.04 1.70 0.37 88 1012.7
20190116203635 50 138 4.0 20.0 0.04 1.70 0.36 88 1012.8
20190116203135 50 173 5.0 20.0 0.05 1.71 0.36 88 1012.8
20190116202632 50 151 6.0 17.0 0.05 1.71 0.36 88 1012.9
20190116202133 50 145 7.0 17.0 0.06 1.71 0.36 88 1013.0
20190116201642 50 121 7.0 25.0 0.06 1.72 0.36 88 1012.9
20190116201130 50 139 8.0 25.0 0.06 1.72 0.36 88 1013.1
20190116200630 50 144 8.0 23.0 0.06 1.73 0.36 88 1013.6
20190116200129 50 148 8.0 22.0 0.06 1.73 0.36 88 1013.7
20190116195628 50 116 6.0 17.0 0.05 1.72 0.35 88 1014.0
20190116195128 50 123 6.0 18.0 0.05 1.73 0.35 88 1014.2
20190116194628 50 147 5.0 18.0 0.04 1.73 0.34 88 1014.4
20190116194126 50 135 6.0 19.0 0.03 1.72 0.33 88 1014.3
20190116193625 50 123 7.0 19.0 0.02 1.71 0.32 88 1014.4
20190116193134 51 128 7.0 18.0 0.01 1.71 0.31 88 1014.4
20190116192625 51 113 6.0 16.0 0.01 1.72 0.31 88 1014.4
20190116192123 51 138 7.0 16.0 0.00 1.71 0.30 88 1014.5
20190116191619 51 116 8.0 19.0 0.00 1.72 0.30 88 1014.5
20190116191115 51 112 7.0 19.0 0.00 1.73 0.30 88 1015.0
20190116190614 51 124 7.0 18.0 0.00 1.73 0.30 88 1015.0
20190116190115 51 122 7.0 18.0 0.00 1.74 0.30 88 1015.1
20190116185613 51 134 8.0 19.0 0.00 1.75 0.30 88 1015.1
20190116185146 51 111 7.0 19.0 0.00 1.75 0.30 88 1015.1
20190116184617 51 108 7.0 20.0 0.00 1.76 0.30 88 1015.1
20190116184118 51 113 9.0 20.0 0.00 1.77 0.30 88 1015.5
20190116183608 51 126 9.0 19.0 0.00 1.77 0.30 88 1015.5
20190116183108 51 112 9.0 18.0 0.00 1.77 0.30 88 1015.6
20190116182609 51 302 8.0 18.0 0.00 1.77 0.30 88 1015.6
20190116182107 50 144 8.0 20.0 0.00 1.78 0.30 88 1015.6
20190116181607 50 128 8.0 22.0 0.00 1.78 0.30 88 1015.5
20190116181106 50 136 9.0 22.0 0.00 1.79 0.30 88 1015.6
20190116180604 50 85 8.0 20.0 0.00 1.79 0.30 89 1015.6
20190116180109 50 124 8.0 20.0 0.00 1.79 0.30 89 1015.8
20190116175612 50 119 8.0 20.0 0.00 1.80 0.30 89 1015.9
20190116175104 50 140 7.0 19.0 0.00 1.81 0.30 89 1015.6
20190116174605 50 159 8.0 19.0 0.00 1.81 0.30 89 1015.6
20190116174105 49 153 8.0 19.0 0.00 1.81 0.30 89 1015.6
20190116173600 49 136 9.0 17.0 0.00 1.82 0.30 89 1015.6
20190116173057 49 127 9.0 18.0 0.00 1.83 0.30 89 1015.6
20190116172558 49 101 9.0 18.0 0.00 1.83 0.30 89 1015.8
20190116172052 49 113 9.0 18.0 0.00 1.84 0.30 89 1015.8
20190116171553 49 123 7.0 18.0 0.00 1.85 0.30 89 1015.7
20190116171050 49 103 6.0 16.0 0.00 1.85 0.30 90 1015.7
20190116170549 49 111 6.0 16.0 0.00 1.86 0.30 90 1015.7
20190116170103 49 130 7.0 16.0 0.00 1.86 0.30 90 1015.3
20190116165552 49 130 8.0 20.0 0.00 1.87 0.30 90 1015.3
20190116165046 49 127 7.0 20.0 0.00 1.87 0.30 90 1015.3
20190116164602 49 129 6.0 19.0 0.00 1.88 0.30 90 1015.3
20190116164044 49 132 7.0 21.0 0.00 1.89 0.30 90 1015.5
20190116163549 49 136 7.0 21.0 0.00 1.89 0.30 90 1015.5
20190116163044 49 155 6.0 16.0 0.00 1.89 0.30 90 1015.7
20190116162545 49 119 6.0 16.0 0.00 1.90 0.30 90 1015.6
20190116162056 49 124 4.0 14.0 0.00 1.91 0.30 89 1015.5
20190116161545 49 198 3.0 7.0 0.00 1.93 0.30 89 1015.8
20190116161044 49 155 2.0 7.0 0.00 1.94 0.30 89 1015.8
20190116160541 49 158 2.0 6.0 0.00 1.95 0.30 89 1015.9
20190116160035 49 136 3.0 9.0 0.00 1.96 0.30 89 1015.8
20190116155535 49 190 3.0 12.0 0.00 1.97 0.30 89 1015.7
20190116155035 49 115 3.0 12.0 0.00 1.97 0.30 89 1015.5
20190116154536 48 131 3.0 12.0 0.00 1.98 0.30 89 1015.3
20190116154033 49 208 2.0 11.0 0.00 1.99 0.30 89 1015.3
20190116153529 49 208 5.0 15.0 0.00 1.99 0.30 89 1015.3
20190116153023 48 144 5.0 15.0 0.00 1.99 0.30 89 1015.1
20190116152515 48 146 3.0 11.0 0.01 2.00 0.30 89 1015.1
20190116152008 48 108 5.0 15.0 0.01 2.01 0.30 89 1015.2
20190116151500 48 132 5.0 15.0 0.01 2.01 0.30 89 1015.2
20190116150959 48 148 3.0 9.0 0.01 2.02 0.30 90 1015.2
20190116150453 48 104 4.0 17.0 0.01 2.03 0.30 90 1015.2
20190116145947 48 132 6.0 17.0 0.01 2.03 0.30 90 1015.2
20190116145451 48 138 6.0 15.0 0.01 2.04 0.30 90 1015.2
20190116144945 48 91 5.0 14.0 0.01 2.05 0.30 90 1015.2
20190116144445 48 114 4.0 14.0 0.01 2.05 0.30 89 1015.2
20190116143943 48 173 4.0 15.0 0.01 2.05 0.30 89 1015.3
20190116143442 48 127 4.0 15.0 0.01 2.06 0.30 89 1015.3
20190116142957 48 228 3.0 12.0 0.01 2.07 0.30 89 1015.5
20190116142444 48 191 4.0 9.0 0.00 2.06 0.29 89 1015.6
20190116141937 48 125 3.0 9.0 0.00 2.06 0.29 89 1015.7
20190116141434 48 134 2.0 9.0 0.00 2.07 0.29 89 1015.8
20190116140934 48 154 3.0 13.0 0.00 2.08 0.29 89 1015.8
20190116140430 48 165 3.0 13.0 0.00 2.08 0.29 89 1015.7
20190116135931 49 180 3.0 11.0 0.00 2.09 0.29 89 1015.7